sat.trackr.live / text

‹ back to catalog

STARLINK-5257

NORAD 55316 · 2023-010AZ

PAYLOAD ACTIVE UNKNOWN

§ Identity

Operator
Country
US
Launch date
2023-01-19
Launch site
AFWTR
Launch vehicle
Mass (kg)
RCS (m²)

Purposes: comms

External: N2YO · Heavens-Above · Gunter

§ Orbital elements

Epoch: 2026-09-20T22:00:03.000096Z

Period
95.60 min
Inclination
70.0002°
Eccentricity
0.0005507
Mean motion
15.06250907 rev/d
Perigee alt
543.9 km
Apogee alt
551.5 km
Semi-major
6,925.8 km
B*
3.5183e-3
RAAN
232.0398°
Arg perigee
271.7669°
Mean anomaly
327.3653°
Rev number
576

§ Raw data

STARLINK-52571 55316U 23010AZ  26263.91670139  .00052028  00000+0  35183-2 0  99992 55316  70.0002 232.0398 0005507 271.7669 327.3653 15.06250907  5765

JSON: /api/v1/satellites/55316 · /tle

For live sub-satellite position, see the globe view (requires WebGL).

§ Visibility from observer

Set your observer location to see the next 7 days of passes ≥ 10°. The values pass through the URL so the page stays shareable.

No JS? Fill the form by hand. The geolocation button needs JavaScript.